TimeEST,TemperatureF,Dew PointF,Humidity,Sea Level PressureIn,VisibilityMPH,Wind Direction,Wind SpeedMPH,Gust SpeedMPH,PrecipitationIn,Events,Conditions,WindDirDegrees,DateUTC
12:54 AM,-2.0,-13.0,60,30.25,10.0,NNW,5.8,-,N/A,,Clear,330,2014-01-24 05:54:00
1:54 AM,-4.0,-13.0,65,30.26,10.0,Variable,3.5,-,N/A,,Clear,0,2014-01-24 06:54:00
2:54 AM,-7.1,-11.9,79,30.27,10.0,NE,4.6,-,N/A,,Clear,50,2014-01-24 07:54:00
3:54 AM,-8.0,-14.1,75,30.27,10.0,NE,8.1,-,N/A,,Clear,50,2014-01-24 08:54:00
4:54 AM,-8.0,-15.0,71,30.28,10.0,ENE,4.6,-,N/A,,Clear,70,2014-01-24 09:54:00
5:54 AM,-7.1,-14.1,72,30.29,10.0,East,3.5,-,N/A,,Overcast,100,2014-01-24 10:54:00
6:06 AM,-7.1,-14.1,72,30.27,10.0,East,5.8,-,N/A,,Overcast,90,2014-01-24 11:06:00
6:54 AM,-7.1,-14.1,72,30.31,10.0,East,3.5,-,N/A,,Mostly Cloudy,80,2014-01-24 11:54:00
7:11 AM,-7.1,-14.1,72,30.28,10.0,East,4.6,-,N/A,,Scattered Clouds,90,2014-01-24 12:11:00
7:54 AM,-9.0,-14.1,79,30.32,10.0,East,3.5,-,N/A,,Scattered Clouds,80,2014-01-24 12:54:00
8:54 AM,-7.1,-11.9,79,30.32,10.0,East,4.6,-,N/A,,Partly Cloudy,80,2014-01-24 13:54:00
9:54 AM,-2.0,-11.0,66,30.31,10.0,East,3.5,-,N/A,,Partly Cloudy,100,2014-01-24 14:54:00
10:54 AM,1.0,-9.0,63,30.29,10.0,Calm,Calm,-,N/A,,Clear,0,2014-01-24 15:54:00
11:54 AM,3.9,-9.0,55,30.25,10.0,SSW,8.1,-,N/A,,Clear,200,2014-01-24 16:54:00
12:54 PM,6.1,-9.0,50,30.19,10.0,South,12.7,-,N/A,,Clear,190,2014-01-24 17:54:00
1:54 PM,9.0,-8.0,46,30.15,10.0,South,8.1,-,N/A,,Clear,170,2014-01-24 18:54:00
2:54 PM,10.9,-9.0,40,30.11,10.0,South,9.2,-,N/A,,Scattered Clouds,180,2014-01-24 19:54:00
3:54 PM,12.0,-8.0,41,30.07,10.0,South,10.4,-,N/A,,Partly Cloudy,170,2014-01-24 20:54:00
4:54 PM,10.9,-7.1,44,30.05,10.0,South,11.5,-,N/A,,Partly Cloudy,170,2014-01-24 21:54:00
5:54 PM,12.0,-6.0,44,30.03,10.0,South,11.5,-,N/A,,Partly Cloudy,180,2014-01-24 22:54:00
6:54 PM,12.0,-4.0,49,30.01,10.0,South,12.7,24.2,N/A,,Scattered Clouds,170,2014-01-24 23:54:00
7:54 PM,12.9,-2.9,49,29.96,10.0,South,19.6,26.5,N/A,,Mostly Cloudy,170,2014-01-25 00:54:00
8:54 PM,14.0,-4.0,45,29.92,10.0,South,15.0,24.2,N/A,,Overcast,170,2014-01-25 01:54:00
9:54 PM,15.1,-2.0,47,29.88,9.0,South,17.3,39.1,0.00,Snow,Light Snow,180,2014-01-25 02:54:00
10:54 PM,15.1,-2.0,47,29.85,9.0,South,19.6,29.9,0.00,,Mostly Cloudy,180,2014-01-25 03:54:00
11:54 PM,16.0,-2.9,43,29.82,9.0,South,19.6,32.2,0.00,Snow,Light Snow,180,2014-01-25 04:54:00